User: anonymous   Login
Location: Unspecified
(0.0000°N, 0.0000°E)
Time: 23:45:01
(UTC+02:00)
Language:

ATLAS 3B CENTAUR R/B - Orbit

View from above orbital plane
View from above orbital plane
View from above satellite
View from above satellite

Ground track
Ground track

The orbit data is extracted from the following two-line orbital elements,

1 28118U 03057B   18115.44325356  .00044345 -13456-5  57809-3 0  9990
2 28118  28.1301 351.9407 2852943 225.6672 107.1653  9.78111837319606
Epoch (UTC): 25 April 2018 10:38:17
Eccentricity: 0.2852943
inclination: 28.1301°
perigee height: 223 km
apogee height: 5492 km
right ascension of ascending node: 351.9407°
argument of perigee: 225.6672°
revolutions per day: 9.78111837
mean anomaly at epoch: 107.1653°
orbit number at epoch: 31960

The dashed part of the orbit path shows where the satellite is in the earth's shadow,  

DLR